Regional Weather Roundup
Issued by NWS

Home | Current Version | Previous Version | Graphics & Text | Print | Product List | Glossary Off
Versions: 1 2 3 4 5 6 7 8 9 10 11 12 13 14 15 16 17 18 19 20 21 22 23 24 25 26 27 28 29 30 31 32 33 34 35 36 37 38 39 40 41 42 43 44 45 46 47 48 49 50

463
ASUS43 KMKX 240611
RWRWI

WISCONSIN REGIONAL WEATHER ROUNDUP
NATIONAL WEATHER SERVICE MILWAUKEE/SULLIVAN WI
100 AM CDT TUE MAY 24 2016

NOTE: "FAIR" INDICATES FEW OR NO CLOUDS BELOW 12,000 FEET WITH NO
SIGNIFICANT WEATHER AND/OR OBSTRUCTIONS TO VISIBILITY.

WIZ001-002-006>008-014>016-023>028-240700-
NORTHWEST WISCONSIN

CITY           SKY/WX    TMP DP  RH WIND       PRES   REMARKS
SUPERIOR ARPT  LGT RAIN  60  60  99 CALM      29.78F
6HR MIN TEMP:  60; 6HR MAX TEMP:  72; 6HR PCP:  0.26;

ASHLAND        CLOUDY    60  60 100 SE5       29.83F
6HR MIN TEMP:  60; 6HR MAX TEMP:  66; 6HR PCP:  0.70;

HAYWARD        CLOUDY    64  60  87 S3        29.84S
6HR MIN TEMP:  63; 6HR MAX TEMP:  67; 6HR PCP: TRACE;

SIREN          CLOUDY    61  59  93 SE5       29.81R
CUMBERLAND     CLOUDY    61  55  82 S6        29.84F
RICE LAKE      CLOUDY    66  56  71 CALM      29.86F
6HR MIN TEMP:  66; 6HR MAX TEMP:  74;

CHETEK         LGT RAIN  63  62  97 S5        29.86S
6HR MIN TEMP:  62; 6HR MAX TEMP:  67; 6HR PCP:  0.02;

LADYSMITH      DRIZZLE   65  61  88 SW5       29.88S
6HR MIN TEMP:  64; 6HR MAX TEMP:  78;

EAU CLAIRE     LGT RAIN  64  62  93 SW3       29.84F
6HR MIN TEMP:  63; 6HR MAX TEMP:  79; 6HR PCP:  0.14;

MENOMONIE      CLOUDY    65  62  90 CALM      29.84F
6HR MIN TEMP:  65; 6HR MAX TEMP:  74; 6HR PCP:  0.08;

NEW RICHMOND   CLOUDY    64  57  80 SE7       29.82F
6HR MIN TEMP:  63; 6HR MAX TEMP:  72;

OSCEOLA        CLOUDY    63  63 100 SE3       29.83F
6HR MIN TEMP:  62; 6HR MAX TEMP:  74; 6HR PCP:  0.11;

$$

WIZ003>005-009-010-017-018-240700-
NORTH CENTRAL WISCONSIN

CITY           SKY/WX    TMP DP  RH WIND       PRES   REMARKS
MANITOWISH WTR CLOUDY    61  61 100 CALM      29.86S
6HR MIN TEMP:  60; 6HR MAX TEMP:  69; 6HR PCP:  0.05;

ARBOR VITAE    CLOUDY    64  60  87 CALM      29.86F
6HR MIN TEMP:  64; 6HR MAX TEMP:  78;

WOODRUFF       CLOUDY    64  60  87 CALM      29.86F
6HR MIN TEMP:  64; 6HR MAX TEMP:  78;

RHINELANDER    CLOUDY    68  47  46 SW6       29.88S
6HR MIN TEMP:  68; 6HR MAX TEMP:  79;

EAGLE RIVER      N/A     65  44  46 CALM      29.86S
LAND O LAKES   CLOUDY    62  56  79 CALM      29.87S
6HR MIN TEMP:  62; 6HR MAX TEMP:  79;

PHILLIPS       CLOUDY    66  60  81 SW7       29.86S
6HR MIN TEMP:  64; 6HR MAX TEMP:  77;

TOMAHAWK       MOCLDY    62  49  62 CALM      29.88S
6HR MIN TEMP:  62; 6HR MAX TEMP:  76;

MEDFORD        CLOUDY    66  55  67 SW6       29.88S
6HR MIN TEMP:  64; 6HR MAX TEMP:  79;

MERRILL        CLOUDY    65  49  56 CALM      29.88S
$$

WIZ029-030-035-036-043>047-240700-
CENTRAL WISCONSIN

CITY           SKY/WX    TMP DP  RH WIND       PRES   REMARKS
WAUSAU         MOCLDY    64  51  62 E3        29.87S
6HR MIN TEMP:  64; 6HR MAX TEMP:  82;

MOSINEE        CLOUDY    63  46  55 SW3       29.89S
MARSHFIELD     CLOUDY    64  51  62 CALM      29.87F
6HR MIN TEMP:  64; 6HR MAX TEMP:  79;

STEVENS POINT  CLEAR     60  46  59 CALM      29.89R
6HR MIN TEMP:  59; 6HR MAX TEMP:  79;

WAUPACA        PTCLDY    61  49  66 CALM      29.88S
6HR MIN TEMP:  61; 6HR MAX TEMP:  81;

WAUTOMA        CLOUDY    56  51  84 CALM      29.89R
6HR MIN TEMP:  56; 6HR MAX TEMP:  81;

WISC RAPIDS    PTCLDY    61  46  57 CALM      29.89R
6HR MIN TEMP:  60; 6HR MAX TEMP:  80;

CAMP DOUGLAS   MOCLDY    61  53  75 S6        29.86F
6HR MIN TEMP:  57; 6HR MAX TEMP:  82;

$$

WIZ011>013-019>022-031-037>040-048>050-240700-
NORTHEAST WISCONSIN

CITY           SKY/WX    TMP DP  RH WIND       PRES   REMARKS
ANTIGO         CLOUDY    58  47  65 CALM      29.90S
6HR MIN TEMP:  57; 6HR MAX TEMP:  78;

SHAWANO        CLEAR     65  48  52 CALM      29.87S
6HR MIN TEMP:  65; 6HR MAX TEMP:  83;

OCONTO         CLEAR     58  48  71 CALM      29.87S
6HR MIN TEMP:  58; 6HR MAX TEMP:  72;

STURGEON BAY   NOT AVBL
GREEN BAY      PTCLDY    63  42  46 S8        29.88S
6HR MIN TEMP:  63; 6HR MAX TEMP:  77;

MANITOWOC      PTCLDY    61  38  42 S10       29.91S
6HR MIN TEMP:  60; 6HR MAX TEMP:  67;

APPLETON       CLEAR     61  45  55 S7        29.88R
CLINTONVILLE   CLEAR     59  46  63 CALM      29.87S
OSHKOSH        CLEAR     59  46  62 S9        29.89R
6HR MIN TEMP:  58; 6HR MAX TEMP:  80;

$$

WIZ032>034-041-042-053>061-240700-
SOUTHWEST WISCONSIN

CITY           SKY/WX    TMP DP  RH WIND       PRES   REMARKS
LA CROSSE      CLOUDY    69  59  70 CALM      29.85S
6HR MIN TEMP:  68; 6HR MAX TEMP:  82;

SPARTA         CLOUDY    63  56  80 E3        29.87S
6HR MIN TEMP:  62; 6HR MAX TEMP:  82;

VIROQUA        CLOUDY    68  47  47 S8        29.89S
6HR MIN TEMP:  67; 6HR MAX TEMP:  80;

BOSCOBEL       NOT AVBL
PRAIRIE DU CHI CLOUDY    67  48  49 CALM      29.87S
6HR MIN TEMP:  67; 6HR MAX TEMP:  82;

PLATTEVILLE    MOCLDY    64  48  55 S5        29.90S
6HR MIN TEMP:  64; 6HR MAX TEMP:  82;

$$

WIZ056-057-062-063-064-067-068-240700-
SOUTH CENTRAL WISCONSIN

CITY           SKY/WX    TMP DP  RH WIND       PRES   REMARKS
REEDSBURG      CLOUDY    64  48  55 CALM      29.88F
6HR MIN TEMP:  64; 6HR MAX TEMP:  81;

BARABOO/DELLS  CLOUDY    60  46  59 S5        29.89S
6HR MIN TEMP:  60; 6HR MAX TEMP:  82;

LONE ROCK      CLOUDY    58  50  75 E3        29.89S
6HR MIN TEMP:  56; 6HR MAX TEMP:  82;

MINERAL POINT  CLOUDY    66  43  42 S6        29.90F
MADISON        CLEAR     61  50  67 SW3       29.90R
6HR MIN TEMP:  60; 6HR MAX TEMP:  80;

MIDDLETON      CLEAR     61  50  68 CALM      29.90S
6HR MIN TEMP:  58; 6HR MAX TEMP:  83;

WATERTOWN      CLEAR     59  45  60 CALM      29.91R
6HR MIN TEMP:  59; 6HR MAX TEMP:  78;

MONROE         PTCLDY    64  45  48 SW9       29.91S
JANESVILLE     CLEAR     63  46  55 S5        29.91R
$$

WIZ051-052-058>065-066-070>072-240700-
SOUTHEAST WISCONSIN

CITY           SKY/WX    TMP DP  RH WIND       PRES   REMARKS
MILWAUKEE      PTCLDY    63  39  41 S6        29.92S
6HR MIN TEMP:  62; 6HR MAX TEMP:  73;

WAUKESHA       CLEAR     61  36  39 S3        29.94R
MILWAUKEE/TIMM CLEAR     63  32  31 S7        29.92S
RACINE         CLOUDY    61  42  49 S6        29.94S
6HR MIN TEMP:  61; 6HR MAX TEMP:  70;

BURLINGTON     CLEAR     52  46  81 CALM      29.93S
6HR MIN TEMP:  52; 6HR MAX TEMP:  75;

KENOSHA        CLOUDY    60  42  51 S6        29.93R
6HR MIN TEMP:  60; 6HR MAX TEMP:  72;

FOND DU LAC    CLEAR     60  44  55 S6        29.90R
6HR MIN TEMP:  58; 6HR MAX TEMP:  80;

SHEBOYGAN      CLOUDY    55  37  50 CALM      29.92R
6HR MIN TEMP:  55; 6HR MAX TEMP:  70;

WEST BEND      CLOUDY    59  36  41 CALM      29.92S
JUNEAU         CLEAR     61  44  53 SE3       29.92R
6HR MIN TEMP:  61; 6HR MAX TEMP:  78;

$$

LSZ147-162-240700-
LAKE SUPERIOR

STATION/POSITION TIME  TEMP    WIND        PRES    WAVE
                       AIR SEA DIR/SP/G            HT/PER
                 (UTC) (F)     (DEG/KT/KT) (MB)    (FT/S)
W MID LAKE BUOY  0550   52 38  250/ 12/ 16 1009.1R   1
DEVILS ISLAND    0600   62     200/  7/  9 1009.0F
PORT WING        0520          140/  3/  9 1008.8F
SAXON HARBOR     0500   65     230/  5/ 14 1010.8
$$

LMZ867-665-643>646-240700-
LAKE MICHIGAN

STATION/POSITION TIME  TEMP    WIND        PRES    WAVE
                       AIR SEA DIR/SP/G            HT/PER
                 (UTC) (F)     (DEG/KT/KT) (MB)    (FT/S)
CHAMBERS ISLAND  0500   63     170/  6/ 11 1011.9R
N MID LAKE BUOY  0550   50 44  190/ 12/ 12 1012.0S   2/ 5
NORTHPORT PIER   0500   60     160/  7/ 11 1011.9S
SISTER BAY       0519   63     180/ 16/ 2C1F1C2F2C3F3C4F4C5F5C6F6C7F7C8M1C9M2Ca!



USA.gov is the U.S. government's official web portal to all federal, state and local government web resources and services.